Time,TemperatureF,DewpointF,PressureIn,WindDirection,WindDirectionDegrees,WindSpeedMPH,WindSpeedGustMPH,Humidity,HourlyPrecipIn,Conditions,Clouds,dailyrainin,SoftwareType,DateUTC
2013-08-23 00:12:00,70.6,69.0,30.02,West,260,0.0,-999.0,94,-99.99,,,0.00,weatherlink.com 1.10,2013-08-23 04:12:00,
2013-08-23 00:27:00,70.2,69.0,30.02,WSW,252,2.0,-999.0,95,-99.99,,,0.00,weatherlink.com 1.10,2013-08-23 04:27:00,
2013-08-23 00:42:00,70.0,69.0,30.03,West,281,1.0,-999.0,95,-99.99,,,0.00,weatherlink.com 1.10,2013-08-23 04:42:00,
2013-08-23 00:57:00,69.9,69.0,30.03,WNW,285,0.0,-999.0,95,-99.99,,,0.00,weatherlink.com 1.10,2013-08-23 04:57:00,
2013-08-23 01:12:00,69.6,68.0,30.03,West,278,1.0,-999.0,95,-99.99,,,0.00,weatherlink.com 1.10,2013-08-23 05:12:00,
2013-08-23 01:27:00,69.4,68.0,30.04,West,264,3.0,-999.0,96,-99.99,,,0.00,weatherlink.com 1.10,2013-08-23 05:27:00,
2013-08-23 01:42:00,69.1,68.0,30.04,West,280,1.0,-999.0,96,-99.99,,,0.00,weatherlink.com 1.10,2013-08-23 05:42:00,
2013-08-23 01:57:00,69.0,68.0,30.04,WNW,298,2.0,-999.0,96,-99.99,,,0.00,weatherlink.com 1.10,2013-08-23 05:57:00,
2013-08-23 02:12:00,69.1,68.0,30.04,WNW,293,0.0,-999.0,97,-99.99,,,0.00,weatherlink.com 1.10,2013-08-23 06:12:00,
2013-08-23 02:27:00,69.1,68.0,30.04,NW,326,3.0,-999.0,96,-99.99,,,0.00,weatherlink.com 1.10,2013-08-23 06:27:00,
2013-08-23 02:42:00,69.0,68.0,30.04,NW,323,0.0,-999.0,96,-99.99,,,0.00,weatherlink.com 1.10,2013-08-23 06:42:00,
2013-08-23 02:57:00,68.8,68.0,30.03,NW,307,0.0,-999.0,96,-99.99,,,0.00,weatherlink.com 1.10,2013-08-23 06:57:00,
2013-08-23 03:12:00,68.6,68.0,30.03,NW,307,0.0,-999.0,97,-99.99,,,0.00,weatherlink.com 1.10,2013-08-23 07:12:00,
2013-08-23 03:27:00,68.5,68.0,30.03,NW,307,0.0,-999.0,97,-99.99,,,0.00,weatherlink.com 1.10,2013-08-23 07:27:00,
2013-08-23 03:42:00,68.5,68.0,30.03,NW,315,0.0,-999.0,97,-99.99,,,0.00,weatherlink.com 1.10,2013-08-23 07:42:00,
2013-08-23 03:57:00,68.4,68.0,30.03,NW,314,1.0,-999.0,97,-99.99,,,0.00,weatherlink.com 1.10,2013-08-23 07:57:00,
2013-08-23 04:12:00,68.3,68.0,30.03,NNW,330,0.0,-999.0,97,-99.99,,,0.00,weatherlink.com 1.10,2013-08-23 08:12:00,
2013-08-23 04:27:00,68.0,67.0,30.03,NW,326,0.0,-999.0,96,-99.99,,,0.00,weatherlink.com 1.10,2013-08-23 08:27:00,
2013-08-23 04:42:00,67.5,65.0,30.04,NW,326,0.0,-999.0,92,-99.99,,,0.00,weatherlink.com 1.10,2013-08-23 08:42:00,
2013-08-23 04:57:00,66.8,64.0,30.04,NW,316,0.0,-999.0,90,-99.99,,,0.00,weatherlink.com 1.10,2013-08-23 08:57:00,
2013-08-23 05:12:00,66.2,63.0,30.04,NNW,341,0.0,-999.0,90,-99.99,,,0.00,weatherlink.com 1.10,2013-08-23 09:12:00,
2013-08-23 05:27:00,65.6,62.0,30.04,NNW,337,0.0,-999.0,89,-99.99,,,0.00,weatherlink.com 1.10,2013-08-23 09:27:00,
2013-08-23 05:42:00,65.0,62.0,30.05,NW,326,0.0,-999.0,90,-99.99,,,0.00,weatherlink.com 1.10,2013-08-23 09:42:00,
2013-08-23 05:57:00,64.3,61.0,30.05,NNW,327,0.0,-999.0,90,-99.99,,,0.00,weatherlink.com 1.10,2013-08-23 09:57:00,
2013-08-23 06:12:00,64.0,61.0,30.05,NNW,340,0.0,-999.0,91,-99.99,,,0.00,weatherlink.com 1.10,2013-08-23 10:12:00,
2013-08-23 06:27:00,63.5,61.0,30.06,NW,323,0.0,-999.0,91,-99.99,,,0.00,weatherlink.com 1.10,2013-08-23 10:27:00,
2013-08-23 06:42:00,63.1,61.0,30.07,NNW,332,0.0,-999.0,92,-99.99,,,0.00,weatherlink.com 1.10,2013-08-23 10:42:00,
2013-08-23 06:57:00,63.0,60.0,30.07,NNW,330,0.0,-999.0,91,-99.99,,,0.00,weatherlink.com 1.10,2013-08-23 10:57:00,
2013-08-23 07:12:00,63.1,60.0,30.08,NW,326,0.0,-999.0,90,-99.99,,,0.00,weatherlink.com 1.10,2013-08-23 11:12:00,
2013-08-23 07:27:00,63.4,60.0,30.08,NNW,327,0.0,-999.0,89,-99.99,,,0.00,weatherlink.com 1.10,2013-08-23 11:27:00,
2013-08-23 07:42:00,63.9,60.0,30.09,North,353,0.0,-999.0,88,-99.99,,,0.00,weatherlink.com 1.10,2013-08-23 11:42:00,
2013-08-23 07:57:00,64.3,60.0,30.09,NNW,340,0.0,-999.0,87,-99.99,,,0.00,weatherlink.com 1.10,2013-08-23 11:57:00,
2013-08-23 08:12:00,65.0,61.0,30.10,North,6,2.0,-999.0,86,-99.99,,,0.00,weatherlink.com 1.10,2013-08-23 12:12:00,
2013-08-23 08:27:00,65.9,61.0,30.10,North,354,3.0,-999.0,85,-99.99,,,0.00,weatherlink.com 1.10,2013-08-23 12:27:00,
2013-08-23 08:42:00,66.8,62.0,30.10,NNE,13,0.0,-999.0,83,-99.99,,,0.00,weatherlink.com 1.10,2013-08-23 12:42:00,
2013-08-23 08:57:00,67.6,62.0,30.10,NNW,333,0.0,-999.0,82,-99.99,,,0.00,weatherlink.com 1.10,2013-08-23 12:57:00,
2013-08-23 09:12:00,68.5,63.0,30.10,NW,314,0.0,-999.0,81,-99.99,,,0.00,weatherlink.com 1.10,2013-08-23 13:12:00,
2013-08-23 09:27:00,69.5,63.0,30.10,NNW,347,0.0,-999.0,79,-99.99,,,0.00,weatherlink.com 1.10,2013-08-23 13:27:00,
2013-08-23 09:42:00,70.4,63.0,30.11,NNW,338,0.0,-999.0,76,-99.99,,,0.00,weatherlink.com 1.10,2013-08-23 13:42:00,
2013-08-23 09:57:00,71.5,62.0,30.11,NNW,339,3.0,-999.0,72,-99.99,,,0.00,weatherlink.com 1.10,2013-08-23 13:57:00,
2013-08-23 10:12:00,72.4,62.0,30.11,NW,318,1.0,-999.0,70,-99.99,,,0.00,weatherlink.com 1.10,2013-08-23 14:12:00,
2013-08-23 10:27:00,73.5,61.0,30.12,WNW,293,2.0,-999.0,66,-99.99,,,0.00,weatherlink.com 1.10,2013-08-23 14:27:00,
2013-08-23 10:42:00,74.1,61.0,30.12,NW,321,4.0,-999.0,64,-99.99,,,0.00,weatherlink.com 1.10,2013-08-23 14:42:00,
2013-08-23 10:57:00,75.0,61.0,30.12,NNW,338,3.0,-999.0,61,-99.99,,,0.00,weatherlink.com 1.10,2013-08-23 14:57:00,
2013-08-23 11:12:00,76.3,60.0,30.12,NNW,344,3.0,-999.0,58,-99.99,,,0.00,weatherlink.com 1.10,2013-08-23 15:12:00,
2013-08-23 11:27:00,77.3,60.0,30.12,NE,35,3.0,-999.0,56,-99.99,,,0.00,weatherlink.com 1.10,2013-08-23 15:27:00,
2013-08-23 11:42:00,78.5,60.0,30.12,NW,310,0.0,-999.0,53,-99.99,,,0.00,weatherlink.com 1.10,2013-08-23 15:42:00,
2013-08-23 11:57:00,79.3,60.0,30.12,NNW,328,2.0,-999.0,51,-99.99,,,0.00,weatherlink.com 1.10,2013-08-23 15:57:00,
2013-08-23 12:12:00,79.2,58.0,30.12,North,356,3.0,-999.0,49,-99.99,,,0.00,weatherlink.com 1.10,2013-08-23 16:12:00,
2013-08-23 12:27:00,79.9,59.0,30.11,ENE,69,2.0,-999.0,49,-99.99,,,0.00,weatherlink.com 1.10,2013-08-23 16:27:00,
2013-08-23 12:42:00,80.2,56.0,30.11,NW,314,3.0,-999.0,43,-99.99,,,0.00,weatherlink.com 1.10,2013-08-23 16:42:00,
2013-08-23 12:57:00,80.2,57.0,30.11,WNW,301,6.0,-999.0,45,-99.99,,,0.00,weatherlink.com 1.10,2013-08-23 16:57:00,
2013-08-23 13:12:00,80.2,56.0,30.11,WNW,300,2.0,-999.0,44,-99.99,,,0.00,weatherlink.com 1.10,2013-08-23 17:12:00,
2013-08-23 13:27:00,80.9,56.0,30.11,NNE,26,4.0,-999.0,43,-99.99,,,0.00,weatherlink.com 1.10,2013-08-23 17:27:00,
2013-08-23 13:42:00,81.0,56.0,30.11,NW,310,3.0,-999.0,43,-99.99,,,0.00,weatherlink.com 1.10,2013-08-23 17:42:00,
2013-08-23 13:57:00,81.4,55.0,30.11,NNW,336,1.0,-999.0,40,-99.99,,,0.00,weatherlink.com 1.10,2013-08-23 17:57:00,
2013-08-23 14:12:00,81.7,54.0,30.11,WNW,293,4.0,-999.0,38,-99.99,,,0.00,weatherlink.com 1.10,2013-08-23 18:12:00,
2013-08-23 14:27:00,81.5,55.0,30.11,NW,316,2.0,-999.0,40,-99.99,,,0.00,weatherlink.com 1.10,2013-08-23 18:27:00,
2013-08-23 14:42:00,81.9,55.0,30.11,NW,322,3.0,-999.0,40,-99.99,,,0.00,weatherlink.com 1.10,2013-08-23 18:42:00,
2013-08-23 14:57:00,82.6,54.0,30.11,NNW,332,0.0,-999.0,38,-99.99,,,0.00,weatherlink.com 1.10,2013-08-23 18:57:00,
2013-08-23 15:12:00,81.9,55.0,30.10,NNW,343,2.0,-999.0,39,-99.99,,,0.00,weatherlink.com 1.10,2013-08-23 19:12:00,
2013-08-23 15:27:00,82.5,54.0,30.10,NW,307,6.0,-999.0,37,-99.99,,,0.00,weatherlink.com 1.10,2013-08-23 19:27:00,
2013-08-23 15:42:00,83.7,55.0,30.10,NNW,335,3.0,-999.0,37,-99.99,,,0.00,weatherlink.com 1.10,2013-08-23 19:42:00,
2013-08-23 15:57:00,82.5,54.0,30.10,NW,304,0.0,-999.0,37,-99.99,,,0.00,weatherlink.com 1.10,2013-08-23 19:57:00,
2013-08-23 16:12:00,82.8,55.0,30.10,NW,321,0.0,-999.0,38,-99.99,,,0.00,weatherlink.com 1.10,2013-08-23 20:12:00,
2013-08-23 16:27:00,83.8,61.0,30.10,SSE,152,0.0,-999.0,47,-99.99,,,0.00,weatherlink.com 1.10,2013-08-23 20:27:00,
2013-08-23 16:42:00,83.9,62.0,30.10,SSE,165,2.0,-999.0,47,-99.99,,,0.00,weatherlink.com 1.10,2013-08-23 20:42:00,
2013-08-23 16:57:00,83.8,61.0,30.09,ESE,108,4.0,-999.0,46,-99.99,,,0.00,weatherlink.com 1.10,2013-08-23 20:57:00,
2013-08-23 17:12:00,83.0,61.0,30.09,South,172,2.0,-999.0,47,-99.99,,,0.00,weatherlink.com 1.10,2013-08-23 21:12:00,
2013-08-23 17:27:00,82.9,61.0,30.09,ENE,68,1.0,-999.0,48,-99.99,,,0.00,weatherlink.com 1.10,2013-08-23 21:27:00,
2013-08-23 17:42:00,81.6,61.0,30.09,SSE,160,1.0,-999.0,49,-99.99,,,0.00,weatherlink.com 1.10,2013-08-23 21:42:00,
2013-08-23 17:57:00,82.0,61.0,30.09,SSE,149,0.0,-999.0,49,-99.99,,,0.00,weatherlink.com 1.10,2013-08-23 21:57:00,
2013-08-23 18:12:00,81.8,59.0,30.09,ENE,69,1.0,-999.0,46,-99.99,,,0.00,weatherlink.com 1.10,2013-08-23 22:12:00,
2013-08-23 18:27:00,81.7,60.0,30.10,SE,143,2.0,-999.0,48,-99.99,,,0.00,weatherlink.com 1.10,2013-08-23 22:27:00,
2013-08-23 18:42:00,81.1,62.0,30.10,ENE,74,2.0,-999.0,52,-99.99,,,0.00,weatherlink.com 1.10,2013-08-23 22:42:00,
2013-08-23 18:57:00,80.7,61.0,30.10,South,173,2.0,-999.0,51,-99.99,,,0.00,weatherlink.com 1.10,2013-08-23 22:57:00,
2013-08-23 19:12:00,80.1,61.0,30.10,South,169,3.0,-999.0,52,-99.99,,,0.00,weatherlink.com 1.10,2013-08-23 23:12:00,
2013-08-23 19:27:00,79.6,61.0,30.10,South,169,1.0,-999.0,54,-99.99,,,0.00,weatherlink.com 1.10,2013-08-23 23:27:00,
2013-08-23 19:42:00,79.0,62.0,30.10,SSW,193,1.0,-999.0,56,-99.99,,,0.00,weatherlink.com 1.10,2013-08-23 23:42:00,
2013-08-23 19:57:00,77.9,62.0,30.10,SSE,159,1.0,-999.0,58,-99.99,,,0.00,weatherlink.com 1.10,2013-08-23 23:57:00,
2013-08-23 20:12:00,76.2,62.0,30.11,SSE,168,0.0,-999.0,61,-99.99,,,0.00,weatherlink.com 1.10,2013-08-24 00:12:00,
2013-08-23 20:27:00,74.3,62.0,30.11,SSE,165,0.0,-999.0,65,-99.99,,,0.00,weatherlink.com 1.10,2013-08-24 00:27:00,
2013-08-23 20:42:00,72.9,62.0,30.11,SE,139,0.0,-999.0,68,-99.99,,,0.00,weatherlink.com 1.10,2013-08-24 00:42:00,
2013-08-23 20:57:00,71.8,63.0,30.12,SE,139,0.0,-999.0,74,-99.99,,,0.00,weatherlink.com 1.10,2013-08-24 00:57:00,
2013-08-23 21:12:00,70.2,63.0,30.13,SE,139,0.0,-999.0,77,-99.99,,,0.00,weatherlink.com 1.10,2013-08-24 01:12:00,
2013-08-23 21:27:00,69.1,62.0,30.14,SE,139,0.0,-999.0,79,-99.99,,,0.00,weatherlink.com 1.10,2013-08-24 01:27:00,
2013-08-23 21:42:00,68.1,63.0,30.15,SE,139,0.0,-999.0,83,-99.99,,,0.00,weatherlink.com 1.10,2013-08-24 01:42:00,
2013-08-23 21:57:00,67.7,62.0,30.15,SE,139,0.0,-999.0,82,-99.99,,,0.00,weatherlink.com 1.10,2013-08-24 01:57:00,
2013-08-23 22:12:00,69.3,62.0,30.16,East,101,2.0,-999.0,77,-99.99,,,0.00,weatherlink.com 1.10,2013-08-24 02:12:00,
2013-08-23 22:27:00,70.0,61.0,30.16,East,81,2.0,-999.0,74,-99.99,,,0.00,weatherlink.com 1.10,2013-08-24 02:27:00,
2013-08-23 22:42:00,69.4,61.0,30.16,East,87,0.0,-999.0,75,-99.99,,,0.00,weatherlink.com 1.10,2013-08-24 02:42:00,
2013-08-23 22:57:00,68.5,61.0,30.17,ENE,78,0.0,-999.0,77,-99.99,,,0.00,weatherlink.com 1.10,2013-08-24 02:57:00,
2013-08-23 23:12:00,67.9,61.0,30.17,ENE,71,0.0,-999.0,78,-99.99,,,0.00,weatherlink.com 1.10,2013-08-24 03:12:00,
2013-08-23 23:27:00,67.5,60.0,30.17,East,83,0.0,-999.0,78,-99.99,,,0.00,weatherlink.com 1.10,2013-08-24 03:27:00,
2013-08-23 23:42:00,66.8,60.0,30.18,ENE,63,0.0,-999.0,79,-99.99,,,0.00,weatherlink.com 1.10,2013-08-24 03:42:00,
2013-08-23 23:57:00,66.4,60.0,30.18,NE,39,0.0,-999.0,79,-99.99,,,0.00,weatherlink.com 1.10,2013-08-24 03:57:00,